TimeCDT,TemperatureF,Dew PointF,Humidity,Sea Level PressureIn,VisibilityMPH,Wind Direction,Wind SpeedMPH,Gust SpeedMPH,PrecipitationIn,Events,Conditions,WindDirDegrees,DateUTC
12:15 AM,33.6,30.2,87,30.09,10.0,South,9.2,-,N/A,,Clear,180,2013-03-15 05:15:00
12:35 AM,33.4,30.2,88,30.08,10.0,South,8.1,-,N/A,,Clear,180,2013-03-15 05:35:00
12:55 AM,33.3,30.2,89,30.06,10.0,South,9.2,-,N/A,,Clear,180,2013-03-15 05:55:00
1:15 AM,33.4,30.2,88,30.06,10.0,South,8.1,-,N/A,,Clear,180,2013-03-15 06:15:00
1:35 AM,33.3,30.0,88,30.05,10.0,South,6.9,-,N/A,,Clear,180,2013-03-15 06:35:00
1:55 AM,33.3,30.0,88,30.04,10.0,South,5.8,-,N/A,,Clear,190,2013-03-15 06:55:00
2:15 AM,33.4,30.0,87,30.05,10.0,SSW,4.6,-,N/A,,Clear,200,2013-03-15 07:15:00
2:35 AM,33.1,30.0,89,30.05,10.0,Calm,Calm,-,N/A,,Clear,0,2013-03-15 07:35:00
2:55 AM,32.4,29.7,90,30.05,10.0,Calm,Calm,-,N/A,,Clear,0,2013-03-15 07:55:00
3:15 AM,32.0,29.5,90,30.04,10.0,Calm,Calm,-,N/A,,Clear,0,2013-03-15 08:15:00
3:35 AM,31.1,28.9,92,30.02,7.0,Calm,Calm,-,N/A,,Clear,0,2013-03-15 08:35:00
3:55 AM,30.6,28.8,93,30.02,7.0,SE,3.5,-,N/A,,Clear,130,2013-03-15 08:55:00
4:15 AM,30.6,29.3,95,30.00,7.0,SE,3.5,-,N/A,,Clear,130,2013-03-15 09:15:00
4:35 AM,30.7,29.3,94,29.99,7.0,SSE,4.6,-,N/A,,Clear,150,2013-03-15 09:35:00
4:55 AM,30.4,28.9,94,29.98,7.0,SSE,5.8,-,N/A,,Clear,160,2013-03-15 09:55:00
5:15 AM,30.9,29.7,95,29.97,7.0,SSE,3.5,-,N/A,,Clear,160,2013-03-15 10:15:00
5:35 AM,30.9,29.7,95,29.98,5.0,SSE,3.5,-,N/A,,Clear,160,2013-03-15 10:35:00
5:55 AM,30.2,28.9,95,29.99,7.0,Calm,Calm,-,N/A,,Clear,0,2013-03-15 10:55:00
6:15 AM,29.3,27.9,94,29.99,5.0,Calm,Calm,-,N/A,,Clear,0,2013-03-15 11:15:00
6:35 AM,28.6,27.5,96,29.98,5.0,Calm,Calm,-,N/A,,Clear,0,2013-03-15 11:35:00
6:55 AM,28.9,28.0,96,29.98,5.0,East,3.5,-,N/A,,Clear,100,2013-03-15 11:55:00
7:15 AM,29.5,28.8,97,29.98,5.0,Calm,Calm,-,N/A,,Clear,0,2013-03-15 12:15:00
7:35 AM,30.2,29.3,96,29.98,4.0,Calm,Calm,-,N/A,,Clear,0,2013-03-15 12:35:00
7:55 AM,31.1,30.2,96,29.98,5.0,South,4.6,-,N/A,,Clear,180,2013-03-15 12:55:00
8:15 AM,32.0,31.1,96,29.97,5.0,South,3.5,-,N/A,,Clear,170,2013-03-15 13:15:00
8:35 AM,34.0,32.0,92,29.97,7.0,South,3.5,-,N/A,,Clear,180,2013-03-15 13:35:00
8:55 AM,34.9,32.0,89,29.97,7.0,Calm,Calm,-,N/A,,Clear,0,2013-03-15 13:55:00
9:15 AM,37.2,32.2,82,29.97,7.0,Calm,Calm,-,N/A,,Clear,0,2013-03-15 14:15:00
9:35 AM,39.2,33.3,79,29.97,10.0,Calm,Calm,-,N/A,,Clear,0,2013-03-15 14:35:00
10:55 AM,45.5,35.1,67,29.96,10.0,NW,3.5,-,N/A,,Scattered Clouds,320,2013-03-15 15:55:00
11:15 AM,46.8,35.1,64,29.95,10.0,Calm,Calm,-,N/A,,Scattered Clouds,0,2013-03-15 16:15:00
11:35 AM,47.5,35.1,62,29.95,10.0,SSW,3.5,-,N/A,,Scattered Clouds,210,2013-03-15 16:35:00
11:55 AM,48.4,35.6,61,29.93,10.0,Calm,Calm,-,N/A,,Mostly Cloudy,0,2013-03-15 16:55:00
12:15 PM,49.3,36.9,62,29.92,10.0,South,4.6,-,N/A,,Mostly Cloudy,190,2013-03-15 17:15:00
12:35 PM,50.9,37.9,61,29.91,10.0,South,4.6,-,N/A,,Scattered Clouds,180,2013-03-15 17:35:00
12:55 PM,51.4,38.7,62,29.89,10.0,South,4.6,-,N/A,,Clear,190,2013-03-15 17:55:00
1:15 PM,53.2,40.3,61,29.89,10.0,SW,4.6,-,N/A,,Scattered Clouds,220,2013-03-15 18:15:00
1:35 PM,54.1,40.3,59,29.88,10.0,South,4.6,-,N/A,,Mostly Cloudy,180,2013-03-15 18:35:00
1:55 PM,55.6,41.0,58,29.88,10.0,SSW,3.5,-,N/A,,Mostly Cloudy,210,2013-03-15 18:55:00
2:15 PM,56.1,40.8,57,29.86,10.0,SSW,4.6,-,N/A,,Scattered Clouds,200,2013-03-15 19:15:00
2:35 PM,57.4,41.0,54,29.85,10.0,WSW,3.5,-,N/A,,Scattered Clouds,240,2013-03-15 19:35:00
2:55 PM,57.0,41.4,56,29.82,10.0,SSE,3.5,-,N/A,,Mostly Cloudy,150,2013-03-15 19:55:00
3:15 PM,57.7,42.4,57,29.81,10.0,South,5.8,-,N/A,,Overcast,170,2013-03-15 20:15:00
3:35 PM,58.3,43.0,57,29.79,10.0,SE,8.1,-,N/A,,Mostly Cloudy,140,2013-03-15 20:35:00
3:55 PM,58.5,42.8,56,29.78,10.0,SE,8.1,-,N/A,,Mostly Cloudy,130,2013-03-15 20:55:00
4:15 PM,59.0,42.8,55,29.77,10.0,SE,8.1,-,N/A,,Overcast,140,2013-03-15 21:15:00
4:35 PM,59.0,43.0,55,29.76,10.0,SE,4.6,-,N/A,,Overcast,130,2013-03-15 21:35:00
4:55 PM,58.5,43.9,58,29.74,10.0,SE,9.2,-,N/A,,Overcast,130,2013-03-15 21:55:00
5:15 PM,58.3,45.1,62,29.76,10.0,Calm,Calm,-,N/A,,Overcast,0,2013-03-15 22:15:00
5:35 PM,57.7,45.9,65,29.74,10.0,East,6.9,-,N/A,,Mostly Cloudy,100,2013-03-15 22:35:00
5:55 PM,57.2,45.5,65,29.76,10.0,NE,3.5,-,N/A,,Mostly Cloudy,50,2013-03-15 22:55:00
6:15 PM,56.1,46.4,70,29.73,10.0,East,6.9,-,N/A,,Mostly Cloudy,100,2013-03-15 23:15:00
6:35 PM,54.9,46.8,74,29.74,10.0,ESE,5.8,-,N/A,,Scattered Clouds,110,2013-03-15 23:35:00
6:55 PM,53.8,45.9,75,29.72,10.0,East,4.6,-,N/A,,Clear,80,2013-03-15 23:55:00
7:15 PM,52.0,45.5,79,29.73,10.0,East,4.6,-,N/A,,Clear,80,2013-03-16 00:15:00
7:35 PM,51.1,45.0,80,29.72,10.0,ENE,6.9,-,N/A,,Clear,60,2013-03-16 00:35:00
7:55 PM,50.9,45.0,80,29.72,10.0,East,4.6,-,N/A,,Clear,80,2013-03-16 00:55:00
8:15 PM,50.2,44.6,81,29.72,10.0,NE,6.9,-,N/A,,Clear,40,2013-03-16 01:15:00
8:35 PM,49.6,44.6,83,29.71,10.0,East,6.9,-,N/A,,Clear,80,2013-03-16 01:35:00
8:55 PM,50.0,44.6,82,29.71,10.0,East,6.9,-,N/A,,Clear,80,2013-03-16 01:55:00
9:15 PM,48.6,44.2,85,29.70,10.0,ENE,4.6,-,N/A,,Clear,70,2013-03-16 02:15:00
9:35 PM,48.2,43.7,84,29.70,10.0,ENE,8.1,-,N/A,,Clear,70,2013-03-16 02:35:00
9:55 PM,47.5,43.5,86,29.69,10.0,Calm,Calm,-,N/A,,Clear,0,2013-03-16 02:55:00
10:15 PM,47.3,43.7,87,29.69,10.0,Calm,Calm,-,N/A,,Clear,0,2013-03-16 03:15:00
10:35 PM,46.8,43.5,88,29.68,10.0,East,3.5,-,N/A,,Clear,90,2013-03-16 03:35:00
10:55 PM,46.8,42.8,86,29.68,10.0,Calm,Calm,-,N/A,,Clear,0,2013-03-16 03:55:00
11:15 PM,46.4,42.4,86,29.67,10.0,East,3.5,-,N/A,,Clear,90,2013-03-16 04:15:00
11:35 PM,45.5,41.9,87,29.66,10.0,Calm,Calm,-,N/A,,Clear,0,2013-03-16 04:35:00
11:55 PM,45.5,41.9,87,29.65,10.0,ESE,3.5,-,N/A,,Clear,110,2013-03-16 04:55:00